Regional Weather Roundup
Issued by NWS Jackson, KY

Home | Current Version | Previous Version | Text Only | Print | Product List | Glossary On
Versions: 1 2 3 4 5 6 7 8 9 10 11 12 13 14 15 16 17 18 19 20 21 22 23 24 25 26 27 28
000
ASUS43 KJKL 300910
RWRJKL

EAST KENTUCKY HOURLY WEATHER ROUNDUP
NATIONAL WEATHER SERVICE JACKSON KY
500 AM EDT SUN APR 30 2017

NOTE: "FAIR" INDICATES FEW OR NO CLOUDS BELOW 12,000 FEET WITH
NO SIGNIFICANT WEATHER AND/OR OBSTRUCTIONS TO VISIBILITY.

* THESE REPORTS ARE NOT UNDER NWS QUALITY CONTROL AND MAY NOT
  REPORT WEATHER SUCH AS PRECIPITATION AND FOG.

KYZ079-080-083-085-087-088-110-112-115-119-120-301000
...EASTERN KENTUCKY...

CITY           SKY/WX    TMP DP  RH WIND       PRES   REMARKS
JACKSON        PTCLDY    69  62  78 CALM      30.01S
LONDON         CLEAR     73  62  68 S6        30.00S
SOMERSET*      CLEAR     72  63  73 S7        29.99S
MONTICELLO*    PTCLDY    71  66  84 E8        29.99S
WILLIAMSBURG*  SUNNY     72  64  78 SE6       30.00S
MIDDLESBORO*   PTCLDY    63  62  97 CALM      30.04R
HARLAN APT*    SUNNY     70  61  73 CALM      30.04F
PIKE CO APT*     N/A     71  65  82 SE6       30.04S
BIG SANDY APT* SUNNY     70  65  83 S5        30.02
MOREHEAD APT*  LGT RAIN  70  61  73 CALM      30.00S
$$

KYZ035-036-041-042-044-050-067-078-099-301000
...CENTRAL KENTUCKY...

CITY           SKY/WX    TMP DP  RH WIND       PRES   REMARKS
MT STERLING*   CLEAR     68  63  83 CALM      30.00R
FLEMING/MASON* PTCLDY    70  64  80 S5        29.99R
DANVILLE*      CLEAR     70  63  78 S6        29.97S
LEXINGTON      CLEAR     71  63  75 SE9       29.95F
FRANKFORT      CLEAR     72  63  73 SE8       29.92R
LOUISVILLE     PTCLDY    74  64  71 S8        29.88F
LEBANON*         N/A     73  64  73 SE9       29.93S
GLASGOW*       PTCLDY    71  63  76 S9        29.91F
BOWLING GREEN  PTCLDY    75  65  70 S12       29.90R
$$

KYZ091>093-OHZ055-061-077-WVZ005-015-034-035-042-301000
...SOUTHERN OHIO/WEST VIRGINIA...

CITY           SKY/WX    TMP DP  RH WIND       PRES   REMARKS
COVINGTON      CLOUDY    70  64  81 S5        29.93R
COLUMBUS       CLOUDY    59  58  96 NE5       29.97F
DAYTON         CLOUDY    54  54 100 E3        29.95F
WILMINGTON     FOG       60  60 100 NE5       29.95F VSB 1
HUNTINGTON     CLEAR     70  63  78 S5        29.99R
CHARLESTON     PTCLDY    68  63  84 SE3       30.01R
PINEVILLE*     MOCLDY    60  59  97 MISG      30.13S FOG
BECKLEY        CLEAR     66  60  81 SE8       30.12S
BLUEFIELD      PTCLDY    67  59  75 S8G18     30.16R
LOGAN CO APT*    N/A     72  61  68 VRB6G12   30.05S
$$

VAZ002-007-008-TNZ017-027-036-066-071-301000
...SOUTHWEST VIRGINIA/EAST TENNESSEE...

CITY           SKY/WX    TMP DP  RH WIND       PRES   REMARKS
WISE*          CLEAR     68  59  73 S14G20    30.12S
JONESVILLE*      N/A    N/A N/A N/A MISG        N/A
ABINGDON*      PTCLDY    65  61  89 CALM      30.12S
BRISTOL        CLEAR     64  61  90 CALM      30.08F
MORRISTOWN*    SUNNY     66  63  88 CALM      30.04S
SEVIERVILLE*   SUNNY     73  55  53 SW3       30.02R
KNOXVILLE      PTCLDY    71  62  73 W6        30.01S
LAFOLLETTE*    SUNNY     73  64  73 S6G15     30.05S
OAK RIDGE      CLEAR     73  64  73 SW3       30.03S
CROSSVILLE     CLOUDY    69  64  84 S9        30.03S
NASHVILLE      CLOUDY    74  65  73 S12       29.91S
$$

...KEY TO REMARKS...
VSB - VISIBILITY IN MILES
WCI - WIND CHILL INDEX
HX  - HEAT INDEX

$$




USA.gov is the U.S. government's official web portal to all federal, state and local government web resources and services.